[Iaude] MPEC G142: 2024 GV2 [a=1.14,e=0.17,i=1.2,H=29.0]

mpec at cfa.harvard.edu mpec at cfa.harvard.edu
Wed Apr 10 20:20:24 EDT 2024


M.P.E.C. 2024-G142                               Issued 2024 April 11, 00:18 UT

     The Minor Planet Electronic Circulars contain information on unusual
         minor planets, routine data on comets and natural satellites,
         and occasional editorial announcements.  They are published
    on behalf of Division F of the International Astronomical Union by the
          Minor Planet Center, Smithsonian Astrophysical Observatory,
                          Cambridge, MA 02138, U.S.A.
			  
             Prepared using the Tamkin Foundation Computer Network

                              MPC at CFA.HARVARD.EDU
            URL https://www.minorplanetcenter.net/    ISSN 1523-6714

                                    2024 GV2                                    


Observations:
     K24G02V*1C2024 04 10.43171115 18 42.764-07 02 13.63         17.04GVEG142703
     K24G02V 1C2024 04 10.43398315 18 47.174-07 02 11.22         17.56GVEG142703
     K24G02V 1C2024 04 10.43625215 18 51.487-07 02 08.27         17.51GVEG142703
     K24G02V 1C2024 04 10.43852215 18 55.775-07 02 05.86         17.69GVEG142703
     K24G02V mC2024 04 10.46517115 19 46.056-07 01 28.78         17.37GVEG142I52
     K24G02V mC2024 04 10.46534115 19 46.369-07 01 28.49         17.52GVEG142I52
     K24G02V mC2024 04 10.46551215 19 46.686-07 01 28.20         17.55GVEG142I52
     K24G02V mC2024 04 10.46568315 19 47.010-07 01 27.95         17.97GVEG142I52
     K24G02V mC2024 04 10.49984815 20 51.223-07 00 30.53         17.55GVEG142I52
     K24G02V mC2024 04 10.50001915 20 51.551-07 00 30.38         17.58GVEG142I52
     K24G02V mC2024 04 10.50018915 20 51.868-07 00 29.99         17.38GVEG142I52
     K24G02V mC2024 04 10.50037115 20 52.210-07 00 29.66         17.55GVEG142I52
     K24G02V KC2024 04 10.61466215 28 19.56 -07 00 47.8          17.9 GVEG142900
     K24G02V KC2024 04 10.62447215 28 33.72 -07 00 49.4          18.4 GVEG142900
     K24G02V KC2024 04 10.63428315 28 47.24 -07 00 49.8          18.8 GVEG142900
     K24G02V KC2024 04 10.94380415 38 20.13 -06 59 57.4          18.4 GXEG142958
     K24G02V KC2024 04 10.94868715 38 25.45 -06 59 58.2          18.4 GXEG142958
     K24G02V KC2024 04 10.95354115 38 30.69 -06 59 59.9          18.7 GXEG142958
     K24G02V KB2024 04 10.95591815 38 31.19 -07 00 22.0          18.3 GXEG142I93
     K24G02V KB2024 04 10.95846215 38 33.86 -07 00 22.3          18.5 GXEG142I93
     K24G02V KB2024 04 10.96125215 38 36.74 -07 00 23.0          18.3 GXEG142I93
     K24G02V KB2024 04 10.97175115 38 30.597-07 02 50.71         18.4 GXEG142B72
     K24G02V KB2024 04 10.97499415 38 33.819-07 02 50.27         18.3 GXEG142B72
     K24G02V KB2024 04 10.97823615 38 37.028-07 02 49.65         18.4 GXEG142B72

Observer details:
703 Catalina Sky Survey.  Observer J. K. Hogan.  Measurers T. Beuden, V. F.
    Carvajal, D. Fay, J. B. Fazekas, D. C. Fuls, A. R. Gibbs, A. D. Grauer, H.
    Groeller, J. K. Hogan, R. A. Kowalski, S. M. Larson, G. J. Leonard, D.
    Rankin, R. L. Seaman, F. C. Shelly, K. W. Wierzchos.  0.68-m Schmidt + 10K
    CCD.
900 Moriyama.  Observer Y. Ikari.  0.26-m f/7.0 reflector + CMO.
958 Observatoire de Dax.  Observers P. Dupouy, J. B. de Vanssay.  Measurer P.
    Dupouy.  0.43-m f/2.7 Reflector + CCD.
B72 Soerth Observatory.  Observer B. Koch.  0.36-m f/7.6 reflector + CMO.
I52 Steward Observatory, Mt. Lemmon Station.  Observer G. J. Leonard.
    Measurers T. Beuden, V. F. Carvajal, D. Fay, J. B. Fazekas, D. C. Fuls, A.
    R. Gibbs, A. D. Grauer, H. Groeller, J. K. Hogan, R. A. Kowalski, S. M.
    Larson, G. J. Leonard, D. Rankin, R. L. Seaman, F. C. Shelly, K. W.
    Wierzchos.  1.0-m prime focus + CCD.
I93 St Pardon de Conques.  Observer F. Losse.  0.40-m f/3.7 reflector + CCD.

Orbital elements:
2024 GV2                                                 Earth MOID = 0.0003 AU
Epoch 2024 Mar. 31.0 TT = JDT 2460400.5                 Veres                   
M  31.67497              (2000.0)            P               Q                  
n   0.81131532     Peri.  305.19872     -0.82265058     -0.56850241             
a   1.1385259      Node   200.15839     +0.52813831     -0.75946885             
e   0.1740954      Incl.    1.18778     +0.21051354     -0.31624685             
P   1.21           H   29.08          G   0.15           U   7                  
Residuals in seconds of arc
240410 703  1.2-  0.4+    240410 I52  0.1-  0.1+    240410 958  0.5-  0.2+
240410 703  0.3+  0.0     240410 I52  0.1-  0.1-    240410 958  0.1-  0.5-
240410 703  0.5+  0.1+    240410 I52  0.2-  0.0     240410 I93  0.2+  0.4+
240410 703  0.4+  0.4-    240410 I52  0.2-  0.0     240410 I93  0.3+  0.5+
240410 I52  0.2+  0.0     240410 900  0.4-  0.1+    240410 I93  0.1+  0.1+
240410 I52  0.1+  0.0     240410 900  1.0+  0.4-    240410 B72  0.2-  0.1+
240410 I52  0.1+  0.0     240410 900  0.6-  0.5-    240410 B72  0.1-  0.1-
240410 I52  0.1+  0.0     240410 958  0.1-  0.2-    240410 B72  0.3+  0.2-

Ephemeris:
2024 GV2                 a,e,i = 1.14, 0.17, 1                   q = 0.9403
Date    TT    R. A. (2000) Decl.     Delta      r    Elong.  Phase     V
2024 03 12    02 41 31.3 +06 13 35   0.06564 0.9519    49.0   128.0    28.6
...
2024 03 27    02 55 56.9 +06 30 09   0.03017 0.9742    38.1   140.8    28.4
...
2024 04 04    03 07 56.5 +06 30 36   0.01197 0.9902    33.6   146.1    27.2
...
2024 04 10    14 49 28.4 -06 23 12   0.0021171.0038   156.5    23.5    16.8
2024 04 11    15 38 17.0 -06 34 48   0.0043801.0057   145.3    34.5    18.7
2024 04 12    15 53 42.7 -06 35 06   0.0066551.0077   142.4    37.3    19.7
...
2024 04 18    16 12 49.1 -06 36 55   0.02027 1.0204   143.1    36.2    22.1
...
2024 04 26    16 14 45.2 -06 46 21   0.03866 1.0398   149.7    29.3    23.4
...
2024 05 11    16 08 23.3 -07 24 55   0.07584 1.0827   162.8    16.0    24.5

M. P. C. Staff               (C) Copyright 2024 MPC           M.P.E.C. 2024-G142





More information about the Iaude mailing list